Home > Weather > Modena > Past weeks

Flag for Italy Weather for the Past 2 Weeks in Modena, Italy

Now
32 °F

Clear.


Feels Like: 25 °F
Forecast: 30 / 48 °F
Wind: 8 mph from Southwest

Location: Bologna / Borgo Panigale

Current Time: Feb 11, 2016 at 6:21:52 AM

Latest Report: Feb 11, 2016 at 5:20 AM


Visibility: 10 mi

Pressure: 29.71 "Hg

Humidity: 69%

Dew point: 23 °F

Location of ModenaLocation

Historic Weather in Modena — Graph

°F

Modena Temperature Yesterday

Maximum temperature yesterday: 57 °F (at 12:20 PM)
Minimum temperature yesterday: 41 °F (at 9:20 PM)
Average temperature yesterday: 49 °F

High & Low Weather Summary for the Past Weeks

 TemperatureHumidityPressure
High63 °F (Feb 9, 1:50 PM)100% (Jan 27, 4:50 AM)30.48 "Hg (Jan 27, 4:50 AM)
Low32 °F (Jan 27, 6:50 AM)19% (Feb 10, 2:20 PM)29.30 "Hg (Feb 10, 2:20 AM)
Average45 °F83%30.13 "Hg
* Reported Jan 27 4:50 AM — Feb 11 4:20 AM, Modena, Weather by CustomWeather, © 2016

Note: Actual official high and low records may vary slightly from our data, if they occured in-between our weather recording intervals... More about our weather records

Advertising

Modena Weather History for the Previous 24 Hours

 ConditionsComfort  
Time TempWeatherWind HumidityBarometerVisibility
4:20 AM
Thu, Feb 11
36 °FPassing clouds.6 mph65%29.68 "HgN/A
3:50 AM37 °FPassing clouds.5 mph60%29.68 "HgN/A
3:20 AM39 °FPassing clouds.3 mph56%29.68 "HgN/A
2:50 AM41 °FPassing clouds.3 mph57%29.68 "HgN/A
2:20 AM39 °FPassing clouds.7 mph65%29.65 "HgN/A
1:50 AM41 °FClear.9 mph61%29.65 "Hg10 mi
1:20 AM45 °FPassing clouds.9 mph53%29.65 "HgN/A
12:50 AM45 °FClear.9 mph57%29.65 "Hg10 mi
12:20 AM43 °FClear.10 mph53%29.65 "Hg10 mi
11:50 PM
Wed, Feb 10
43 °FClear.8 mph49%29.62 "Hg10 mi
10:50 PM43 °FClear.7 mph42%29.62 "Hg10 mi
9:50 PM41 °FClear.8 mph45%29.62 "Hg10 mi
9:20 PM41 °FClear.7 mph45%29.62 "Hg10 mi
8:50 PM43 °FClear.8 mph42%29.62 "Hg10 mi
8:20 PM43 °FClear.5 mph39%29.62 "Hg10 mi
7:50 PM46 °FPassing clouds.7 mph32%29.59 "HgN/A
7:20 PM46 °FClear.7 mph32%29.59 "Hg10 mi
6:50 PM48 °FClear.8 mph29%29.59 "Hg10 mi
6:20 PM48 °FPassing clouds.7 mph29%29.56 "HgN/A
5:50 PM50 °FClear.8 mph28%29.53 "Hg10 mi
5:20 PM52 °FSunny.12 mph26%29.53 "Hg10 mi
4:50 PM54 °FPassing clouds.14 mph22%29.50 "HgN/A
4:20 PM55 °FSunny.18 mph21%29.50 "Hg10 mi
3:50 PM55 °FSunny.16 mph23%29.50 "Hg10 mi
3:20 PM55 °FSunny.21 mph19%29.50 "Hg10 mi
2:50 PM55 °FSunny.24 mph19%29.47 "Hg10 mi
2:20 PM55 °FSunny.25 mph19%29.47 "Hg10 mi
1:50 PM57 °FSunny.23 mph20%29.47 "Hg10 mi
1:20 PM57 °FSunny.26 mph20%29.47 "Hg10 mi
12:50 PM55 °FSunny.23 mph23%29.47 "Hg10 mi
12:20 PM57 °FSunny.23 mph27%29.45 "Hg10 mi
11:50 AM55 °FSunny.23 mph24%29.45 "Hg10 mi
11:20 AM55 °FSunny.24 mph28%29.45 "Hg10 mi
10:50 AM54 °FSunny.23 mph28%29.45 "Hg10 mi
10:20 AM54 °FSunny.21 mph30%29.42 "Hg10 mi
9:50 AM52 °FSunny.21 mph32%29.42 "Hg10 mi
9:20 AM48 °FSunny.18 mph46%29.39 "Hg10 mi
8:50 AM46 °FSunny.17 mph53%29.39 "Hg10 mi
8:20 AM45 °FPassing clouds.13 mph57%29.39 "HgN/A
7:50 AM45 °FPassing clouds.13 mph61%29.36 "HgN/A
7:20 AM45 °FPassing clouds.13 mph66%29.33 "HgN/A
6:50 AM43 °FPassing clouds.10 mph81%29.33 "HgN/A
6:20 AM45 °FPassing clouds.10 mph87%29.33 "HgN/A
Weather by CustomWeather, © 2016

See weather overviewHow to use our weather pages